Hourly Weather Madinat 'Isa

Today, 6 July, Monday

Time Temperature Precipitation Wind Pressure Humidity
00:00 +38°C° 0 mm 4 mps 744 mmHg 44%
01:00 +38°C° 0 mm 4 mps 743 mmHg 45%
02:00 +38°C° 0 mm 4 mps 743 mmHg 46%
03:00 +38°C° 0 mm 4 mps 743 mmHg 46%
04:00 +38°C° 0 mm 4 mps 743 mmHg 45%
05:00 +38°C° 0 mm 4 mps 744 mmHg 45%
06:00 +37°C° 0 mm 4 mps 744 mmHg 44%
07:00 +38°C° 0 mm 4 mps 745 mmHg 42%
08:00 +38°C° 0 mm 4 mps 745 mmHg 40%
09:00 +40°C° 0 mm 4 mps 745 mmHg 38%
10:00 +41°C° 0 mm 4 mps 745 mmHg 39%
11:00 +40°C° 0 mm 3 mps 745 mmHg 39%
12:00 +41°C° 0 mm 2 mps 745 mmHg 39%
13:00 +42°C° 0 mm 3 mps 744 mmHg 39%
14:00 +42°C° 0 mm 3 mps 744 mmHg 40%
15:00 +42°C° 0 mm 3 mps 744 mmHg 40%
16:00 +42°C° 0 mm 3 mps 744 mmHg 41%
17:00 +41°C° 0 mm 4 mps 744 mmHg 42%
18:00 +41°C° 0 mm 4 mps 744 mmHg 43%
19:00 +39°C° 0 mm 3 mps 744 mmHg 45%
20:00 +39°C° 0 mm 2 mps 744 mmHg 48%
21:00 +37°C° 0 mm 1 mps 745 mmHg 50%
22:00 +37°C° 0 mm 1 mps 744 mmHg 50%
23:00 +37°C° 0 mm 1 mps 744 mmHg 51%

Tomorrow, 7 July, Tuesday

Time Temperature Precipitation Wind Pressure Humidity
00:00 +35°C° 0 mm 0 mps 744 mmHg 51%
01:00 +38°C° 0 mm 2 mps 744 mmHg 48%
02:00 +38°C° 0 mm 4 mps 744 mmHg 45%
03:00 +39°C° 0 mm 5 mps 744 mmHg 42%
04:00 +39°C° 0 mm 5 mps 744 mmHg 42%
05:00 +39°C° 0 mm 5 mps 744 mmHg 43%
06:00 +39°C° 0 mm 5 mps 745 mmHg 43%
07:00 +38°C° 0 mm 4 mps 745 mmHg 44%
08:00 +39°C° 0 mm 3 mps 746 mmHg 45%
09:00 +39°C° 0 mm 2 mps 746 mmHg 46%
10:00 +39°C° 0 mm 2 mps 746 mmHg 45%
11:00 +40°C° 0 mm 3 mps 746 mmHg 44%
12:00 +40°C° 0 mm 3 mps 746 mmHg 43%
13:00 +41°C° 0 mm 4 mps 745 mmHg 43%
14:00 +41°C° 0 mm 4 mps 745 mmHg 43%
15:00 +41°C° 0 mm 5 mps 745 mmHg 43%
16:00 +41°C° 0 mm 5 mps 744 mmHg 43%
17:00 +40°C° 0 mm 5 mps 744 mmHg 44%
18:00 +40°C° 0 mm 6 mps 744 mmHg 45%
19:00 +40°C° 0 mm 5 mps 745 mmHg 47%
20:00 +39°C° 0 mm 5 mps 745 mmHg 49%
21:00 +39°C° 0 mm 5 mps 745 mmHg 51%
22:00 +39°C° 0 mm 5 mps 745 mmHg 53%
23:00 +37°C° 0 mm 4 mps 745 mmHg 55%

Day after tomorrow, 8 July, Wednesday

Time Temperature Precipitation Wind Pressure Humidity
00:00 +37°C° 0 mm 3 mps 745 mmHg 58%
01:00 +37°C° 0 mm 3 mps 745 mmHg 58%
02:00 +37°C° 0 mm 3 mps 745 mmHg 58%
03:00 +36°C° 0 mm 3 mps 745 mmHg 59%
04:00 +36°C° 0 mm 3 mps 745 mmHg 58%
05:00 +36°C° 0 mm 2 mps 746 mmHg 57%
06:00 +36°C° 0 mm 2 mps 746 mmHg 56%
07:00 +37°C° 0 mm 2 mps 747 mmHg 55%
08:00 +37°C° 0 mm 3 mps 747 mmHg 53%
09:00 +38°C° 0 mm 3 mps 747 mmHg 52%
10:00 +38°C° 0 mm 4 mps 747 mmHg 53%
11:00 +38°C° 0 mm 4 mps 747 mmHg 53%
12:00 +39°C° 0 mm 5 mps 746 mmHg 54%
13:00 +40°C° 0 mm 6 mps 746 mmHg 55%
14:00 +40°C° 0 mm 6 mps 746 mmHg 55%
15:00 +40°C° 0 mm 6 mps 746 mmHg 55%
16:00 +40°C° 0 mm 6 mps 746 mmHg 55%
17:00 +40°C° 0 mm 6 mps 746 mmHg 54%
18:00 +40°C° 0 mm 5 mps 746 mmHg 53%
19:00 +40°C° 0 mm 5 mps 746 mmHg 53%
20:00 +39°C° 0 mm 5 mps 746 mmHg 53%
21:00 +39°C° 0 mm 5 mps 746 mmHg 54%
22:00 +39°C° 0 mm 5 mps 746 mmHg 55%
23:00 +37°C° 0 mm 5 mps 746 mmHg 56%

9 July, Thursday

Time Temperature Precipitation Wind Pressure Humidity
00:00 +37°C° 0 mm 5 mps 746 mmHg 58%
01:00 +37°C° 0 mm 4 mps 746 mmHg 58%
02:00 +37°C° 0 mm 4 mps 746 mmHg 59%
03:00 +36°C° 0 mm 4 mps 746 mmHg 60%
04:00 +36°C° 0 mm 4 mps 746 mmHg 62%
05:00 +36°C° 0 mm 3 mps 747 mmHg 64%
06:00 +36°C° 0 mm 3 mps 747 mmHg 66%
07:00 +36°C° 0 mm 3 mps 747 mmHg 64%
08:00 +36°C° 0 mm 2 mps 748 mmHg 63%
09:00 +36°C° 0 mm 2 mps 748 mmHg 61%
10:00 +37°C° 0 mm 2 mps 748 mmHg 60%
11:00 +37°C° 0 mm 2 mps 747 mmHg 58%
12:00 +38°C° 0 mm 2 mps 747 mmHg 57%
13:00 +38°C° 0 mm 2 mps 746 mmHg 56%
14:00 +39°C° 0 mm 2 mps 746 mmHg 55%
15:00 +39°C° 0 mm 2 mps 745 mmHg 55%
16:00 +39°C° 0 mm 2 mps 745 mmHg 54%
17:00 +39°C° 0 mm 2 mps 745 mmHg 53%
18:00 +39°C° 0 mm 3 mps 745 mmHg 51%
19:00 +40°C° 0 mm 4 mps 745 mmHg 51%
20:00 +40°C° 0 mm 4 mps 745 mmHg 51%
21:00 +40°C° 0 mm 5 mps 746 mmHg 50%
22:00 +38°C° 0 mm 4 mps 745 mmHg 53%
23:00 +38°C° 0 mm 4 mps 745 mmHg 55%

10 July, Friday

Time Temperature Precipitation Wind Pressure Humidity
00:00 +38°C° 0 mm 3 mps 745 mmHg 58%
01:00 +38°C° 0 mm 3 mps 744 mmHg 56%
02:00 +38°C° 0 mm 3 mps 744 mmHg 54%
03:00 +38°C° 0 mm 3 mps 744 mmHg 52%
04:00 +38°C° 0 mm 3 mps 745 mmHg 53%
05:00 +38°C° 0 mm 2 mps 745 mmHg 55%
06:00 +37°C° 0 mm 1 mps 745 mmHg 56%
07:00 +37°C° 0 mm 1 mps 746 mmHg 56%
08:00 +37°C° 0 mm 1 mps 746 mmHg 55%
09:00 +36°C° 0 mm 0 mps 746 mmHg 55%
10:00 +39°C° 0 mm 1 mps 746 mmHg 54%
11:00 +40°C° 0 mm 1 mps 746 mmHg 52%
12:00 +41°C° 0 mm 1 mps 745 mmHg 50%
13:00 +41°C° 0 mm 2 mps 745 mmHg 48%
14:00 +42°C° 0 mm 4 mps 745 mmHg 46%
15:00 +42°C° 0 mm 5 mps 744 mmHg 44%
16:00 +41°C° 0 mm 5 mps 744 mmHg 47%
17:00 +40°C° 0 mm 4 mps 744 mmHg 50%
18:00 +39°C° 0 mm 3 mps 744 mmHg 53%
19:00 +38°C° 0 mm 3 mps 744 mmHg 55%
20:00 +38°C° 0 mm 2 mps 745 mmHg 56%
21:00 +37°C° 0 mm 1 mps 745 mmHg 58%
22:00 +38°C° 0 mm 2 mps 745 mmHg 56%
23:00 +38°C° 0 mm 2 mps 744 mmHg 55%

11 July, Saturday

Time Temperature Precipitation Wind Pressure Humidity
00:00 +38°C° 0 mm 3 mps 744 mmHg 54%
01:00 +37°C° 0 mm 2 mps 744 mmHg 57%
02:00 +37°C° 0 mm 2 mps 744 mmHg 60%
03:00 +36°C° 0 mm 1 mps 744 mmHg 63%
04:00 +37°C° 0 mm 2 mps 744 mmHg 60%
05:00 +37°C° 0 mm 3 mps 744 mmHg 56%
06:00 +39°C° 0 mm 5 mps 745 mmHg 53%
07:00 +38°C° 0 mm 4 mps 745 mmHg 54%
08:00 +38°C° 0 mm 3 mps 745 mmHg 55%
09:00 +38°C° 0 mm 2 mps 745 mmHg 56%
10:00 +38°C° 0 mm 3 mps 745 mmHg 54%
11:00 +39°C° 0 mm 3 mps 745 mmHg 53%
12:00 +40°C° 0 mm 4 mps 745 mmHg 52%
13:00 +40°C° 0 mm 4 mps 744 mmHg 54%
14:00 +38°C° 0 mm 4 mps 744 mmHg 55%
15:00 +38°C° 0 mm 4 mps 744 mmHg 57%
16:00 +38°C° 0 mm 4 mps 744 mmHg 57%
17:00 +38°C° 0 mm 4 mps 743 mmHg 58%
18:00 +38°C° 0 mm 4 mps 743 mmHg 58%
19:00 +37°C° 0 mm 4 mps 743 mmHg 61%
20:00 +37°C° 0 mm 5 mps 744 mmHg 63%
21:00 +36°C° 0 mm 5 mps 744 mmHg 65%
22:00 +36°C° 0 mm 5 mps 743 mmHg 67%
23:00 +36°C° 0 mm 5 mps 743 mmHg 68%
Show more